User: anonymous
Location: Unspecified
(0.0000°N, 0.0000°E)
Time: 10:11:55
(UTC+02:00)
Language:

SeaSat 1 - Orbit

View from above orbital plane
View from above orbital plane
View from above satellite
View from above satellite

Ground track
Ground track

The orbit data is extracted from the following two-line orbital elements,

1 10967U 78064A   14273.26696676  .00000467  00000-0  17969-3 0  4035
2 10967 107.9910 030.3308 0002079 246.1602 169.1497 14.43088903903636
Epoch (UTC): 30 September 2014 06:24:25
Eccentricity: 0.0002079
inclination: 107.9910°
perigee height: 747 km
apogee height: 750 km
right ascension of ascending node: 30.3308°
argument of perigee: 246.1602°
revolutions per day: 14.43088903
mean anomaly at epoch: 169.1497°
orbit number at epoch: 90363

The dashed part of the orbit path shows where the satellite is in the earth's shadow,  

DLR